CW8287 Weather Reports


Display with metric or nautical units.
time (UTC)temp
F
wind
direction
speed
MPH
gust
MPH
rain 1hr
in
rain 24hr
in
rain mn
in
humidity
%
barometer
mb
20191208001630 53 317 0.0 0.0 0.00 0.02 0.00 14 1015.9
20191208000631 53 317 0.0 0.0 0.00 0.02 0.00 14 1015.9
20191207235626 53 317 0.0 0.0 0.00 0.02 0.00 14 1025.7
20191207234627 53 317 0.0 0.0 0.00 0.02 0.00 14 1018.8
20191207233629 53 317 0.0 0.0 0.00 0.02 0.00 14 1018.8
20191207232639 53 317 0.0 0.0 0.00 0.02 0.00 14 1033.5
20191207231641 54 317 0.0 0.0 0.00 0.02 0.00 14 1033.5
20191207230621 54 317 0.0 0.0 0.00 0.02 0.00 14 1037.0
20191207225627 54 317 0.0 0.0 0.00 0.02 0.00 14 1037.0
20191207224633 54 317 0.0 0.0 0.00 0.02 0.00 14 1041.3
20191207223635 54 317 0.0 0.0 0.00 0.02 0.00 14 1041.2
20191207222640 54 317 0.0 0.0 0.00 0.02 0.00 14 1041.2
20191207221620 54 317 0.0 0.0 0.00 0.02 0.02 14 1041.4
20191207220629 54 317 0.0 0.0 0.00 0.02 0.02 14 1041.4
20191207215641 53 317 0.0 0.0 0.00 0.02 0.02 14 1041.6
20191207214622 53 317 0.0 0.0 0.00 0.02 0.02 14 1041.5
20191207213624 53 317 0.0 0.0 0.00 0.02 0.02 14 1041.7
20191207212631 53 317 0.0 0.0 0.00 0.06 0.02 14 1093.5
20191207211630 53 317 0.0 0.0 0.00 0.06 0.02 14 1093.5
20191207210633 53 317 0.0 0.0 0.00 0.06 0.02 14 1093.5
20191207205635 53 317 0.0 0.0 0.00 0.06 0.02 14 1093.5
20191207204641 53 317 0.0 0.0 0.00 0.06 0.02 14 1093.5
20191207203622 53 317 0.0 0.0 0.00 0.06 0.02 14 1093.5
20191207202625 53 317 0.0 0.0 0.00 0.06 0.02 14 1093.5
20191207201626 53 317 0.0 0.0 0.00 0.06 0.02 14 1093.5
20191207200632 53 317 0.0 0.0 0.00 0.06 0.02 14 1093.5
20191207195624 53 317 0.0 0.0 0.00 0.06 0.02 13 1093.5
20191207194625 53 317 0.0 0.0 0.00 0.06 0.02 13 1093.5
20191207193626 53 317 0.0 0.0 0.00 0.06 0.02 13 1093.5
20191207192628 53 317 0.0 0.0 0.00 0.06 0.02 13 1093.5
20191207191633 54 317 0.0 0.0 0.00 0.06 0.02 13 1093.5
20191207190636 54 317 0.0 0.0 0.00 0.06 0.02 13 1093.5
20191207185639 54 316 0.0 0.0 0.00 0.06 0.02 13 1093.5
20191207184639 54 316 0.0 0.0 0.00 0.06 0.02 12 1093.5
20191207183624 55 316 0.0 0.0 0.00 0.06 0.02 12 1093.5
20191207182627 55 316 0.0 0.0 0.00 0.06 0.02 12 1093.5
20191207181630 55 315 0.0 0.0 0.00 0.06 0.02 12 1093.5
20191207180632 55 315 0.0 0.0 0.00 0.06 0.02 12 1093.5
20191207175630 55 315 0.0 0.0 0.00 0.06 0.02 11 1093.5
20191207174631 55 316 0.0 0.0 0.00 0.06 0.02 11 1093.5
20191207173633 56 316 0.0 0.0 0.00 0.06 0.02 11 1093.5
20191207172637 56 315 0.0 0.0 0.00 0.06 0.02 11 1093.5
20191207171622 56 315 0.0 0.0 0.00 0.06 0.02 11 1093.5
20191207170626 57 315 0.0 0.0 0.00 0.06 0.02 10 1093.5
20191207165629 57 315 0.0 0.0 0.00 0.06 0.02 10 1093.5
20191207164630 57 316 0.0 0.0 0.00 0.06 0.02 10 1093.5
20191207163638 58 316 0.0 0.0 0.00 0.06 0.02 10 1093.5
20191207162643 58 316 0.0 0.0 0.00 0.06 0.02 10 1093.5
20191207161623 58 315 0.0 0.0 0.00 0.06 0.02 11 1093.5
20191207160625 59 316 0.0 0.0 0.00 0.06 0.02 12 1093.5
20191207155638 59 316 0.0 0.0 0.00 0.06 0.02 14 1093.5
20191207154623 59 316 0.0 0.0 0.00 0.06 0.02 16 1093.5
20191207153626 59 315 0.0 0.0 0.00 0.06 0.02 19 1093.5
20191207152629 59 315 0.0 0.0 0.00 0.06 0.02 21 1093.5
20191207151632 60 315 0.0 0.0 0.00 0.06 0.02 23 1093.5
20191207150639 60 316 0.0 0.0 0.00 0.06 0.02 25 1093.5
20191207145642 61 316 0.0 0.0 0.00 0.06 0.02 28 1095.4
20191207144622 62 316 0.0 0.0 0.00 0.06 0.02 31 1095.4
20191207143626 62 315 0.0 0.0 0.00 0.06 0.02 33 1095.4
20191207142634 63 316 0.0 0.0 0.00 0.06 0.02 34 1018.9
20191207141637 64 315 0.0 0.0 0.00 0.06 0.02 35 1018.9
20191207140621 65 316 0.0 4.0 0.00 0.06 0.02 35 1018.9
20191207135639 65 315 0.0 3.0 0.00 0.06 0.02 35 1018.9
20191207134626 66 315 0.0 4.0 0.00 0.06 0.02 35 1018.9
20191207133630 66 315 0.0 4.0 0.00 0.06 0.02 35 1018.9
20191207132634 66 315 0.0 5.0 0.00 0.06 0.02 35 1018.9
20191207131637 67 316 1.0 7.0 0.00 0.06 0.02 34 1018.9
20191207130627 67 309 2.0 6.0 0.00 0.06 0.02 34 1018.9
20191207125634 68 309 2.0 7.0 0.00 0.06 0.02 34 1018.9
20191207124638 68 309 1.0 7.0 0.00 0.06 0.02 33 1018.9
20191207123621 68 313 3.0 8.0 0.00 0.06 0.02 32 1018.9
20191207122629 68 311 2.0 7.0 0.00 0.06 0.02 32 1018.9
20191207121632 68 310 3.0 9.0 0.00 0.06 0.02 31 1018.9
20191207120636 68 313 1.0 6.0 0.00 0.06 0.02 29 1018.9
20191207115632 67 314 2.0 6.0 0.00 0.06 0.02 29 1018.9
20191207114620 67 316 0.0 6.0 0.00 0.06 0.02 29 1018.9
20191207113626 69 313 0.0 3.0 0.00 0.06 0.02 27 1018.9
20191207112631 70 313 0.0 4.0 0.00 0.06 0.02 24 1018.9
20191207111634 68 311 0.0 3.0 0.00 0.06 0.02 24 1018.9
20191207110622 68 312 1.0 3.0 0.00 0.06 0.02 24 1018.9
20191207105627 68 313 0.0 0.0 0.00 0.06 0.02 23 1018.9
20191207104630 69 313 0.0 0.0 0.00 0.06 0.02 22 1018.9
20191207103634 69 313 0.0 6.0 0.00 0.06 0.02 19 1018.9
20191207102624 69 214 0.0 3.0 0.00 0.06 0.02 17 1018.9
20191207101626 68 213 0.0 3.0 0.00 0.06 0.02 14 1018.9
20191207100628 67 213 0.0 0.0 0.00 0.06 0.02 13 1018.9
20191207095622 66 213 0.0 0.0 0.00 0.06 0.02 14 1018.9
20191207094629 66 213 0.0 0.0 0.00 0.06 0.02 13 1018.9
20191207093633 67 213 0.0 0.0 0.00 0.06 0.02 12 1018.9
20191207092635 67 214 0.0 0.0 0.00 0.06 0.02 10 1018.9
20191207091620 67 215 0.0 0.0 0.00 0.06 0.02 9 1018.9
20191207090628 67 215 0.0 0.0 0.00 0.06 0.02 8 1018.9
20191207085633 66 217 0.0 4.0 0.00 0.06 0.02 7 1018.9
20191207084633 66 219 0.0 4.0 0.00 0.06 0.02 9 1018.9
20191207083635 64 220 0.0 0.0 0.00 0.06 0.02 14 1018.9
20191207082641 62 209 0.0 6.0 0.00 0.06 0.02 18 1018.9
20191207081622 61 106 0.0 0.0 0.00 0.06 0.02 20 1018.9
20191207080624 59 104 0.0 3.0 0.00 0.06 0.02 21 1018.9
20191207075636 59 94 0.0 3.0 0.00 0.06 0.02 21 1018.9
20191207074621 59 85 0.0 0.0 0.00 0.06 0.02 21 1018.9
20191207073625 59 85 0.0 1.0 0.00 0.06 0.02 21 1018.9
20191207072627 57 67 0.0 2.0 0.00 0.06 0.02 21 1018.9
20191207071628 56 63 0.0 0.0 0.00 0.06 0.02 21 1018.9
20191207070630 56 63 0.0 0.0 0.00 0.06 0.02 22 1018.9
20191207065620 56 63 0.0 0.0 0.00 0.06 0.02 22 1018.9
20191207064623 55 63 0.0 0.0 0.00 0.06 0.02 22 1018.9
20191207063627 55 63 0.0 0.0 0.00 0.06 0.02 22 1028.8
20191207062629 55 63 0.0 0.0 0.00 0.06 0.02 22 1028.8
20191207061636 54 63 0.0 0.0 0.00 0.06 0.02 22 1021.3
20191207060640 54 63 0.0 0.0 0.00 0.06 0.02 21 1021.3
20191207055635 54 63 0.0 2.0 0.00 0.06 0.02 21 1035.1
20191207054638 54 63 0.0 3.0 0.00 0.06 0.02 21 1035.1
20191207053624 54 63 0.0 0.0 0.00 0.06 0.02 21 1035.1
20191207052627 54 63 0.0 0.0 0.02 0.06 0.02 21 1035.1
20191207051628 54 63 0.0 0.0 0.02 0.06 0.02 21 1033.3
20191207050632 53 63 0.0 0.0 0.02 0.06 0.02 21 1036.9
20191207045622 53 63 0.0 0.0 0.02 0.06 0.02 21 1036.9
20191207044625 53 63 0.0 0.0 0.02 0.06 0.02 21 1036.9
20191207043627 53 63 0.0 0.0 0.02 0.06 0.02 21 1040.6
20191207042630 53 63 0.0 0.0 0.00 0.05 0.01 21 1040.6
20191207041635 53 63 0.0 0.0 0.00 0.05 0.01 21 1078.7
20191207040637 53 63 0.0 1.0 0.00 0.05 0.01 21 1024.4
20191207035630 53 334 0.0 0.0 0.00 0.05 0.01 21 1031.1
20191207034631 53 333 0.0 0.0 0.00 0.05 0.01 21 1041.5
20191207033638 53 333 0.0 0.0 0.00 0.05 0.01 21 1041.5
20191207032623 53 333 0.0 0.0 0.00 0.05 0.01 21 1041.5
20191207031625 53 333 0.0 0.0 0.00 0.05 0.01 20 1041.3
20191207030626 53 333 0.0 0.0 0.00 0.05 0.01 20 1041.4
20191207025632 53 333 0.0 0.0 0.00 0.05 0.01 20 1035.7
20191207024634 54 333 0.0 0.0 0.00 0.05 0.01 20 1032.0
20191207023635 54 333 0.0 0.0 0.00 0.05 0.01 20 1041.4
20191207022637 54 333 0.0 0.0 0.00 0.05 0.01 20 1080.6
20191207021621 54 333 0.0 0.0 0.00 0.05 0.01 20 1080.6
20191207020623 55 333 0.0 0.0 0.00 0.05 0.01 20 1080.6
20191207015635 54 333 0.0 0.0 0.00 0.05 0.01 20 1080.6
20191207014636 55 333 0.0 0.0 0.00 0.05 0.01 20 1080.6
20191207013639 55 333 0.0 0.0 0.00 0.05 0.01 19 1080.6
20191207012625 55 333 0.0 0.0 0.00 0.05 0.01 19 1080.6
20191207011628 55 333 0.0 0.0 0.00 0.05 0.01 19 1080.6
20191207010632 55 333 0.0 0.0 0.00 0.05 0.01 19 1080.6
20191207005635 55 333 0.0 0.0 0.00 0.05 0.01 19 1080.6
20191207004621 55 333 0.0 0.0 0.00 0.05 0.01 19 1080.6
20191207003623 55 333 0.0 0.0 0.00 0.05 0.01 19 1080.6
20191207002625 55 333 0.0 0.0 0.01 0.05 0.01 19 1080.6